Weather in Zolotari

Russia / Volgograd Oblast     49°45′43″N   46°27′01″E
temp.,
°C
wind,
m/s
gust,
m/s
humid.,
%
clouds,
%
prec.,
mm/h
press.,
hPa
HPBL,
m
28 february, sun
sun2800:00−2nw9129299 0.2 1007597
03:00−7nnw7128376 0.2 1009661
06:00−9nnw611803 0.0 1012582
09:00−9nnw69781 0.0 1013559
12:00−8nw57760 0.0 1014611
15:00−6nw57771 0.0 1015639
18:00−8nw348721 0.0 1016106
21:00−9nnw239013 0.0 101875
1 march, mon
mon100:00−10nnw24900 0.0 101999
03:00−11nnw35900 0.0 1020154
06:00−12n24880 0.0 1022167
09:00−11nnw34800 0.0 1024268
12:00−9nnw357424 0.0 1025461
15:00−7nw347312 0.0 1025516
18:00−9n01830 0.0 102621
21:00−9w22830 0.0 102621
2 march, tue
tue200:00−9w33870 0.0 102538
03:00−8wsw44890 0.0 102478
06:00−7sw598956 0.0 1021165
09:00−4sw7138778 0.0 1019438
12:000wsw91480100 0.0 1015920
15:00−1wsw101596100 1.0 1012874
18:000wsw91597100 2.1 1009735
21:00+1w81397100 2.9 1008579
3 march, wed
wed300:00−2w5129396 0.1 1007315
03:00−2wnw5128996 0.3 1008323
06:00−4wnw6129434 0.0 1008351
09:00−2wnw6119067 0.1 1010696
12:00−1nw798197 0.1 1011917
15:000nw6108295 0.1 1011852
18:00−2nw6128398 0.1 1012534
21:00−5nw6138692 0.1 1015484
4 march, thu
thu400:00−5nw6128877 0.0 1016429
03:00−6nw6128938 0.0 1018363
06:00−8nw511900 0.0 1020278
09:00−6wnw58880 0.0 1022312
12:00−3w47810 0.0 1022517
15:00−1wsw48820 0.0 1021506
18:00−3sw48830 0.0 1020130
21:00−2sw6138419 0.0 1020243